Volver al catálogo

STARLINK-6206

ActivoComunicacionesVLEO
NORAD 56876·PAYLOAD·🇺🇸 United States

Lanzado Jun 12, 2023 desde Cape Canaveral Space Force Station

Loading…

Próximos Pases (próximas 24 horas)

TLE

ActualizadoSource: CelesTrak SupGP

Época: Sep 15, 2026, 02:29 UTC

1 56876C 23083A   26258.10395833  .00024741  00000+0  89617-3 0  2582
2 56876  43.0018  95.7036 0001933 269.2688 187.8261 15.27563798    14

Sigue STARLINK-6206 en tiempo real con AllMySat

Download on the App Store